Location: Kelshall
(52.0000°N, 0.0500°W)
Time: 03:33:07
(UTC+00:00)

Exosat Rocket - Pass Details

Date: 18 September 2020
Orbit: 761 x 2514 km, 72.3° (Epoch: 18 October)

Event Time Altitude Azimuth Distance (km) Brightness Sun altitude
Rises 20:59:37 0° 213° (SSW) 3,573 6.9 -25.2°
Reaches altitude 10° 21:02:17 10° 215° (SW) 2,492 6.1 -25.5°
Maximum altitude 21:07:39 72° 300° (WNW) 817 3.7 -26.1°
Drops below altitude 10° 21:12:40 10° 26° (NNE) 2,323 6.2 -26.7°
Sets 21:15:04 0° 28° (NNE) 3,310 7.0 -27.0°
